�N����,����,�~����,�C��,���x,�C��,����,���ϕ���,�ő�u�ԕ���,�ő厞����,���˗�,�I�_���x,�n�����x,�ő啗���N��,DTYPE
"20/08/07","00:10",0.0,24.8,83.6,1006.0,299.8,0.7,1.3,310.9,0.00,21.9,26.6,"00:04:24",1
"20/08/07","00:20",0.0,24.9,84.1,1006.2,310.1,1.1,1.7,315.4,0.00,22.1,26.3,"00:18:08",1
"20/08/07","00:30",0.0,24.9,84.4,1005.7,287.9,0.5,1.2,299.5,0.00,22.1,26.3,"00:20:08",1
"20/08/07","00:40",0.0,24.7,84.6,1005.7,310.2,0.3,0.8,230.5,0.00,22.0,26.3,"00:36:08",1
"20/08/07","00:50",0.0,24.6,84.8,1005.5,288.5,0.5,0.9,260.4,0.00,21.9,26.4,"00:47:52",1
"20/08/07","01:00",0.0,24.8,85.2,1005.5,327.0,1.0,1.8,316.9,0.00,22.2,26.1,"00:57:12",1
"20/08/07","01:10",0.0,24.5,85.6,1005.5,313.6,0.6,1.4,315.0,0.00,22.0,26.3,"01:09:28",1
"20/08/07","01:20",0.0,24.6,85.9,1005.5,320.3,1.0,1.6,316.4,0.00,22.1,26.2,"01:11:36",1
"20/08/07","01:30",0.0,24.6,86.1,1005.0,316.6,0.3,0.9,341.3,0.00,22.2,26.1,"01:29:44",1
"20/08/07","01:40",0.0,24.6,86.4,1005.2,343.3,1.0,1.7,336.7,0.00,22.2,26.2,"01:30:32",1
"20/08/07","01:50",0.0,24.3,86.6,1005.0,272.0,0.7,1.1,273.6,0.00,22.0,26.1,"01:47:28",1
"20/08/07","02:00",0.0,24.3,87.1,1004.8,323.4,0.8,1.8,334.1,0.00,22.1,26.0,"01:59:52",1
"20/08/07","02:10",0.0,24.3,87.3,1005.0,305.7,1.0,2.2,341.6,0.00,22.1,26.0,"02:01:52",1
"20/08/07","02:20",0.0,24.2,87.6,1004.8,307.0,0.8,1.4,331.6,0.00,22.1,25.9,"02:12:08",1
"20/08/07","02:30",0.0,24.3,87.8,1004.8,306.7,1.1,1.9,346.7,0.00,22.2,26.0,"02:23:28",1
"20/08/07","02:40",0.0,24.3,87.9,1004.8,296.0,0.7,1.1,247.0,0.00,22.2,25.9,"02:33:36",1
"20/08/07","02:50",0.0,24.1,88.0,1004.5,40.7,0.7,1.7,338.7,0.00,22.0,26.0,"02:48:24",1
"20/08/07","03:00",0.0,24.1,88.4,1004.3,312.8,1.3,2.9,339.6,0.00,22.1,25.9,"02:54:16",1
"20/08/07","03:10",0.0,24.0,88.6,1004.5,320.2,1.0,1.7,335.6,0.00,22.0,26.0,"03:01:20",1
"20/08/07","03:20",0.0,24.0,88.8,1004.5,305.5,0.7,1.3,331.9,0.00,22.1,25.8,"03:14:48",1
"20/08/07","03:30",0.0,24.0,88.9,1004.5,286.2,0.3,1.2,263.7,0.00,22.1,25.7,"03:20:02",1
"20/08/07","03:40",0.0,24.2,89.0,1004.5,293.2,0.8,1.2,262.1,0.00,22.3,25.8,"03:31:20",1
"20/08/07","03:50",0.0,24.2,89.0,1004.8,334.8,1.1,1.8,317.4,0.00,22.3,25.7,"03:42:40",1
"20/08/07","04:00",0.0,24.2,89.1,1004.5,306.7,0.7,1.4,353.4,0.00,22.3,25.7,"03:57:04",1
"20/08/07","04:10",0.0,24.2,89.2,1004.5,339.6,1.1,2.0,356.7,0.00,22.3,25.9,"04:06:48",1
"20/08/07","04:20",0.0,24.2,89.3,1004.3,309.4,0.6,1.4,326.5,0.00,22.4,25.7,"04:10:32",1
"20/08/07","04:30",0.0,24.1,89.4,1004.8,292.3,0.6,1.3,275.5,0.00,22.3,25.7,"04:26:40",1
"20/08/07","04:40",0.0,24.1,89.6,1005.0,319.8,0.6,1.0,320.9,0.00,22.3,25.6,"04:32:48",1
"20/08/07","04:50",0.0,24.1,89.7,1004.8,330.5,0.5,1.0,359.9,0.00,22.3,25.6,"04:40:40",1
"20/08/07","05:00",0.0,24.1,89.7,1005.0,310.6,0.7,1.4,311.9,0.00,22.3,25.8,"04:52:40",1
"20/08/07","05:10",0.0,24.1,90.0,1005.0,317.5,0.6,1.4,333.3,0.00,22.4,25.7,"05:09:44",1
"20/08/07","05:20",0.0,24.1,90.1,1004.8,331.1,1.0,2.0,340.7,0.00,22.4,25.7,"05:14:16",1
"20/08/07","05:30",0.0,24.1,90.3,1005.0,313.6,0.8,1.3,310.5,0.00,22.5,25.6,"05:22:56",1
"20/08/07","05:40",0.0,24.4,90.4,1005.5,276.3,0.6,1.3,265.5,0.00,22.8,25.6,"05:34:08",1
"20/08/07","05:50",0.0,24.6,90.5,1005.0,306.6,0.7,1.4,337.9,0.00,23.0,25.6,"05:48:24",1
"20/08/07","06:00",0.0,24.7,90.5,1004.8,345.4,1.1,1.4,326.2,0.01,23.1,25.6,"05:54:56",1
"20/08/07","06:10",0.0,24.8,90.5,1005.0,338.8,1.0,1.9,345.1,0.01,23.2,25.4,"06:00:40",1
"20/08/07","06:20",0.0,25.0,90.6,1004.8,321.2,0.8,1.0,344.6,0.02,23.4,25.7,"06:11:04",1
"20/08/07","06:30",0.0,25.3,90.5,1005.0,312.1,0.7,1.6,320.3,0.03,23.7,25.6,"06:29:20",1
"20/08/07","06:40",0.0,25.4,90.4,1005.0,335.1,1.0,1.9,344.8,0.04,23.8,25.8,"06:37:20",1
"20/08/07","06:50",0.0,25.8,90.4,1005.2,326.3,0.8,1.9,344.7,0.06,24.1,26.0,"06:45:52",1
"20/08/07","07:00",0.0,26.4,90.3,1005.0,277.6,0.5,1.0,301.4,0.09,24.7,25.7,"06:52:00",1
"20/08/07","07:10",0.0,26.8,89.6,1004.8,216.6,0.3,1.1,236.1,0.09,25.0,25.8,"07:04:16",1
"20/08/07","07:20",0.0,26.9,89.2,1005.2,231.6,0.2,1.0,225.2,0.06,25.0,26.1,"07:13:44",1
"20/08/07","07:30",0.0,27.2,88.1,1004.8,106.7,0.1,0.5,267.1,0.08,25.1,25.7,"07:20:08",1
"20/08/07","07:40",0.0,28.0,87.6,1004.8,201.9,0.1,0.5,287.6,0.12,25.8,26.2,"07:38:32",1
"20/08/07","07:50",0.0,27.8,85.6,1003.8,339.7,0.5,1.3,342.6,0.11,25.2,26.2,"07:45:20",1
"20/08/07","08:00",0.0,28.0,83.3,1004.3,7.8,0.6,1.4,13.5,0.11,24.9,26.1,"07:54:24",1
"20/08/07","08:10",0.0,28.4,81.3,1004.5,335.4,0.6,1.4,349.4,0.10,24.9,26.4,"08:00:32",1
"20/08/07","08:20",0.0,28.8,79.5,1004.5,329.1,0.3,1.1,349.7,0.12,24.9,26.5,"08:10:24",1
"20/08/07","08:30",0.0,29.1,77.7,1004.8,291.3,0.5,0.9,305.6,0.15,24.8,26.5,"08:21:28",1
"20/08/07","08:40",0.0,29.2,76.2,1004.8,145.5,0.3,1.3,131.4,0.12,24.6,26.5,"08:34:32",1
"20/08/07","08:50",0.0,29.2,75.8,1005.2,299.6,0.1,0.5,130.0,0.09,24.5,26.5,"08:40:16",1
"20/08/07","09:00",0.0,29.3,74.9,1005.0,2.2,0.6,1.1,16.9,0.12,24.4,26.6,"08:56:56",1
"20/08/07","09:10",0.0,29.5,74.1,1004.8,8.5,0.8,1.9,1.4,0.15,24.4,26.7,"09:03:04",1
"20/08/07","09:20",0.0,29.6,73.9,1004.8,13.5,0.7,1.7,40.3,0.13,24.5,26.8,"09:16:56",1
"20/08/07","09:30",0.0,29.9,73.6,1004.5,7.7,0.8,1.6,333.4,0.16,24.7,26.8,"09:21:28",1
"20/08/07","09:40",0.0,30.1,72.1,1004.8,48.8,0.6,1.7,347.6,0.21,24.6,26.9,"09:32:56",1
"20/08/07","09:50",0.0,30.8,70.7,1005.0,320.6,0.6,1.3,358.6,0.27,24.9,26.9,"09:40:48",1
"20/08/07","10:00",0.0,30.6,69.9,1005.7,156.7,0.8,1.9,192.9,0.16,24.5,27.1,"09:58:40",1
"20/08/07","10:10",0.0,30.1,71.2,1005.2,156.6,1.3,2.5,133.8,0.12,24.3,27.1,"10:09:12",1
"20/08/07","10:20",0.0,29.7,72.4,1005.0,167.8,1.7,3.9,208.3,0.11,24.2,27.2,"10:18:40",1
"20/08/07","10:30",0.0,30.0,71.8,1004.8,154.0,1.2,2.5,123.8,0.15,24.4,27.1,"10:24:40",1
"20/08/07","10:40",0.0,30.4,70.6,1005.2,185.7,1.2,2.5,191.1,0.15,24.5,27.4,"10:36:08",1
"20/08/07","10:50",0.0,30.9,69.4,1004.8,205.3,0.7,2.4,204.5,0.15,24.7,27.2,"10:41:28",1
"20/08/07","11:00",0.0,31.4,68.5,1005.0,329.6,0.6,1.9,355.1,0.19,24.9,27.5,"10:55:04",1
"20/08/07","11:10",0.0,31.7,67.2,1005.5,281.9,0.6,1.4,329.9,0.20,24.9,27.6,"11:01:28",1
"20/08/07","11:20",0.0,31.6,67.1,1005.2,316.3,1.0,2.2,340.1,0.20,24.8,27.6,"11:14:56",1
"20/08/07","11:30",0.0,31.8,66.4,1005.5,308.9,0.6,2.1,342.4,0.25,24.8,27.6,"11:22:00",1
"20/08/07","11:40",0.0,32.5,64.4,1005.7,197.0,0.8,2.0,123.4,0.39,25.0,27.7,"11:38:40",1
"20/08/07","11:50",0.0,33.2,63.1,1006.0,35.2,1.0,2.2,355.8,0.42,25.3,27.9,"11:45:20",1
"20/08/07","12:00",0.0,32.8,61.8,1006.2,102.7,0.8,2.8,10.2,0.19,24.5,27.9,"11:50:02",1
"20/08/07","12:10",0.0,32.1,63.6,1005.7,246.3,1.5,4.1,186.3,0.19,24.4,28.0,"12:08:40",1
"20/08/07","12:20",0.0,32.4,63.6,1005.5,248.8,1.1,2.7,224.6,0.25,24.6,28.2,"12:15:04",1
"20/08/07","12:30",0.0,32.2,63.4,1005.0,271.3,1.0,2.9,222.1,0.16,24.4,28.0,"12:24:56",1
"20/08/07","12:40",0.0,31.9,64.9,1005.0,286.7,1.1,2.5,349.8,0.18,24.5,28.1,"12:30:40",1
"20/08/07","12:50",0.0,32.5,63.6,1005.2,313.5,1.1,3.3,230.3,0.35,24.7,28.4,"12:40:40",1
"20/08/07","13:00",0.0,32.5,62.6,1004.8,240.8,1.1,3.1,233.9,0.24,24.5,28.3,"12:52:56",1
"20/08/07","13:10",0.0,32.2,62.6,1005.0,310.6,0.8,2.8,347.5,0.20,24.2,28.3,"13:05:28",1
"20/08/07","13:20",0.0,32.2,62.4,1004.5,276.5,0.8,2.4,323.7,0.23,24.1,28.6,"13:10:48",1
"20/08/07","13:30",0.0,32.5,61.4,1004.8,260.9,1.1,2.2,222.6,0.27,24.2,28.4,"13:23:52",1
"20/08/07","13:40",0.0,33.0,60.6,1005.0,261.0,1.2,2.9,348.2,0.40,24.4,28.5,"13:32:48",1
"20/08/07","13:50",0.0,33.4,58.9,1004.8,279.8,1.2,4.7,227.5,0.38,24.3,28.7,"13:47:44",1
"20/08/07","14:00",0.0,32.9,58.8,1005.0,255.0,1.5,3.5,209.6,0.29,23.8,28.7,"13:53:52",1
"20/08/07","14:10",0.0,32.8,60.3,1004.5,223.4,1.6,4.4,201.7,0.26,24.1,28.7,"14:02:32",1
"20/08/07","14:20",0.0,33.3,59.0,1004.8,236.5,1.2,3.7,227.5,0.39,24.2,28.7,"14:18:00",1
"20/08/07","14:30",0.0,33.7,57.4,1005.0,219.8,1.3,3.3,204.8,0.39,24.2,29.1,"14:20:02",1
"20/08/07","14:40",0.0,33.4,59.0,1004.8,217.0,1.0,3.3,192.2,0.23,24.3,28.9,"14:31:36",1
"20/08/07","14:50",0.0,32.7,60.0,1004.1,236.1,1.6,3.7,202.2,0.18,24.0,28.9,"14:40:02",1
"20/08/07","15:00",0.0,33.6,59.6,1004.3,229.1,1.6,5.0,201.8,0.42,24.7,29.0,"14:50:08",1
"20/08/07","15:10",0.0,33.4,58.1,1004.5,226.9,2.2,5.8,221.1,0.31,24.1,29.2,"15:03:20",1
"20/08/07","15:20",0.0,33.0,59.4,1004.3,223.7,2.0,5.2,228.1,0.24,24.1,29.0,"15:13:52",1
"20/08/07","15:30",0.0,32.7,60.0,1004.1,244.6,1.1,3.1,220.6,0.16,24.0,29.0,"15:22:08",1
"20/08/07","15:40",0.0,33.3,60.1,1003.8,243.2,1.0,2.2,227.4,0.30,24.5,29.0,"15:34:16",1
"20/08/07","15:50",0.0,33.7,58.4,1004.1,242.8,1.2,4.0,217.0,0.30,24.4,29.2,"15:48:56",1
"20/08/07","16:00",0.0,33.5,58.4,1004.3,233.7,1.3,2.9,216.6,0.28,24.3,29.4,"15:55:20",1
"20/08/07","16:10",0.0,33.1,59.5,1004.3,271.0,1.0,1.9,255.6,0.17,24.2,29.1,"16:06:00",1
"20/08/07","16:20",0.0,32.6,60.8,1003.8,262.6,1.1,3.3,228.7,0.15,24.1,29.2,"16:11:20",1
"20/08/07","16:30",0.0,32.1,62.3,1003.8,326.8,1.5,3.5,355.5,0.12,24.0,29.2,"16:24:40",1
"20/08/07","16:40",0.0,32.3,63.1,1003.6,248.6,1.0,3.9,218.0,0.16,24.4,29.0,"16:35:20",1
"20/08/07","16:50",0.0,32.5,61.9,1003.8,242.5,1.1,2.6,221.9,0.15,24.3,29.1,"16:42:32",1
"20/08/07","17:00",0.0,32.5,62.0,1003.6,288.9,0.6,1.6,245.2,0.12,24.3,29.2,"16:58:00",1
"20/08/07","17:10",0.0,32.3,62.5,1003.6,289.4,0.8,1.4,324.3,0.09,24.3,29.0,"17:01:28",1
"20/08/07","17:20",0.0,31.7,63.4,1003.6,218.7,1.6,3.9,228.6,0.06,23.9,29.1,"17:18:24",1
"20/08/07","17:30",0.0,31.6,64.0,1003.6,233.5,1.5,3.4,208.8,0.06,24.0,28.8,"17:28:32",1
"20/08/07","17:40",0.0,31.4,64.9,1003.4,251.9,0.6,2.2,193.8,0.04,24.0,29.0,"17:30:08",1
"20/08/07","17:50",0.0,31.1,66.5,1002.9,341.4,1.0,3.1,355.3,0.03,24.2,28.9,"17:41:20",1
"20/08/07","18:00",0.0,30.7,67.7,1002.9,325.8,0.7,1.8,355.3,0.01,24.1,28.7,"17:53:52",1
"20/08/07","18:10",0.0,30.5,69.1,1002.9,335.0,1.0,3.7,346.9,0.00,24.2,28.6,"18:09:36",1
"20/08/07","18:20",0.0,29.5,70.8,1002.4,359.8,1.6,3.2,0.7,0.00,23.7,28.5,"18:14:24",1
"20/08/07","18:30",0.0,28.9,72.5,1002.4,350.4,1.5,3.3,354.5,0.00,23.5,28.5,"18:20:16",1
"20/08/07","18:40",0.0,28.6,73.9,1002.2,346.8,1.3,2.4,349.9,0.00,23.5,28.4,"18:36:48",1
"20/08/07","18:50",0.0,28.3,75.0,1002.6,338.1,1.8,3.9,345.5,0.00,23.5,28.2,"18:41:52",1
"20/08/07","19:00",0.0,28.2,75.5,1002.9,322.4,1.5,2.9,342.1,0.00,23.5,28.3,"18:57:20",1
"20/08/07","19:10",0.0,28.1,75.8,1003.1,297.2,0.7,2.5,315.5,0.00,23.5,28.2,"19:00:56",1
"20/08/07","19:20",0.0,28.1,76.1,1003.1,310.4,1.1,1.9,340.3,0.00,23.5,28.2,"19:17:04",1
"20/08/07","19:30",0.0,27.9,76.3,1003.4,282.7,0.7,2.0,330.7,0.00,23.4,28.1,"19:20:16",1
"20/08/07","19:40",0.0,27.9,76.7,1003.8,298.8,0.7,1.9,315.6,0.00,23.5,28.2,"19:38:56",1
"20/08/07","19:50",0.0,27.8,77.5,1003.8,314.5,0.6,1.4,338.6,0.00,23.5,28.0,"19:49:12",1
"20/08/07","20:00",0.0,27.5,78.4,1003.8,326.2,1.0,1.9,341.1,0.00,23.4,28.0,"19:59:52",1
"20/08/07","20:10",0.0,27.3,79.1,1004.1,310.1,0.6,1.6,14.3,0.00,23.4,27.7,"20:00:02",1
"20/08/07","20:20",0.0,27.4,80.1,1004.1,345.2,1.1,1.6,357.6,0.00,23.7,27.7,"20:11:20",1
"20/08/07","20:30",0.0,26.9,81.1,1004.1,330.4,1.0,1.4,325.4,0.00,23.4,27.5,"20:23:36",1
"20/08/07","20:40",0.0,26.6,81.8,1004.1,179.7,0.3,0.9,145.2,0.00,23.3,27.6,"20:33:44",1
"20/08/07","20:50",0.0,26.6,82.6,1003.8,325.3,1.1,1.8,336.3,0.00,23.4,27.4,"20:48:32",1
"20/08/07","21:00",0.0,26.3,83.1,1004.3,332.1,1.0,2.4,343.3,0.00,23.2,27.6,"20:52:48",1
"20/08/07","21:10",0.0,26.3,83.6,1004.3,339.5,0.8,2.2,345.1,0.00,23.3,27.6,"21:09:44",1
"20/08/07","21:20",0.0,26.1,83.8,1004.3,308.1,0.8,1.7,353.1,0.00,23.2,27.2,"21:10:48",1
"20/08/07","21:30",0.0,26.0,84.1,1004.3,278.7,0.7,1.4,242.6,0.00,23.1,27.2,"21:23:28",1
"20/08/07","21:40",0.0,26.0,84.3,1004.1,280.4,0.8,1.3,319.3,0.00,23.2,27.0,"21:38:16",1
"20/08/07","21:50",0.0,26.0,84.6,1004.3,346.1,1.0,1.7,343.5,0.00,23.2,27.2,"21:43:28",1
"20/08/07","22:00",0.0,25.7,84.8,1004.3,334.2,0.5,1.3,343.2,0.00,23.0,27.2,"21:53:04",1
"20/08/07","22:10",0.0,25.4,85.2,1004.1,311.6,0.7,1.2,315.0,0.00,22.8,27.0,"22:03:20",1
"20/08/07","22:20",0.0,25.3,85.8,1004.3,307.8,0.5,1.0,335.1,0.00,22.8,27.0,"22:19:36",1
"20/08/07","22:30",0.0,25.2,86.2,1004.3,290.0,0.6,1.0,318.5,0.00,22.8,26.8,"22:21:28",1
"20/08/07","22:40",0.0,25.2,86.6,1004.3,313.3,0.6,1.0,354.6,0.00,22.8,26.8,"22:38:40",1
"20/08/07","22:50",0.0,25.1,86.9,1004.3,329.0,0.8,1.2,345.5,0.00,22.8,26.8,"22:48:16",1
"20/08/07","23:00",0.0,24.9,87.4,1004.3,323.1,0.8,1.2,336.5,0.00,22.7,26.8,"22:59:52",1
"20/08/07","23:10",0.0,24.9,87.9,1004.1,318.7,0.8,1.7,327.5,0.00,22.8,26.7,"23:08:28",1
"20/08/07","23:20",0.0,24.8,88.1,1004.1,289.6,0.6,1.1,305.4,0.00,22.7,26.7,"23:10:08",1
"20/08/07","23:30",0.0,24.8,88.4,1004.5,281.0,0.6,1.1,263.5,0.00,22.8,26.5,"23:23:12",1
"20/08/07","23:40",0.0,24.8,88.7,1004.5,291.8,0.7,1.2,255.1,0.00,22.8,26.6,"23:30:08",1
"20/08/07","23:50",0.0,24.7,88.9,1004.3,285.5,0.6,1.0,329.4,0.00,22.8,26.5,"23:40:16",1
"20/08/07","24:00",0.0,24.7,89.2,1004.1,311.1,0.7,1.8,328.8,0.00,22.8,26.4,"23:59:44",1
